When you browse on this site, cookies collect data to enhance your experience and personalize the content and advertising you see.
Visit our Privacy Policy to learn more. By continuing to use the site, you agree to this use of cookies and data.
EN

Hourly Weather Kavala

Today, 10 August, Monday

Time Temperature Precipitation Wind Pressure Humidity
00:00 +25°C° 0 mm 3 mps 757 mmHg 58%
01:00 +24°C° 0 mm 3 mps 757 mmHg 59%
02:00 +24°C° 0 mm 3 mps 757 mmHg 59%
03:00 +24°C° 0 mm 3 mps 757 mmHg 59%
04:00 +24°C° 0 mm 3 mps 757 mmHg 60%
05:00 +22°C° 0 mm 3 mps 757 mmHg 61%
06:00 +25°C° 0 mm 2 mps 757 mmHg 55%
07:00 +27°C° 0 mm 2 mps 757 mmHg 50%
08:00 +29°C° 0 mm 2 mps 758 mmHg 44%
09:00 +31°C° 0 mm 2 mps 758 mmHg 40%
10:00 +33°C° 0 mm 3 mps 758 mmHg 35%
11:00 +35°C° 0 mm 3 mps 758 mmHg 31%
12:00 +35°C° 0 mm 3 mps 757 mmHg 31%
13:00 +35°C° 0 mm 3 mps 757 mmHg 30%
14:00 +36°C° 0 mm 3 mps 757 mmHg 30%
15:00 +35°C° 0 mm 3 mps 757 mmHg 30%
16:00 +35°C° 0 mm 2 mps 757 mmHg 31%
17:00 +35°C° 0 mm 2 mps 757 mmHg 32%
18:00 +32°C° 0 mm 2 mps 757 mmHg 35%
19:00 +31°C° 0 mm 2 mps 757 mmHg 39%
20:00 +29°C° 0 mm 2 mps 757 mmHg 43%
21:00 +28°C° 0 mm 2 mps 757 mmHg 45%
22:00 +27°C° 0 mm 2 mps 758 mmHg 46%
23:00 +26°C° 0 mm 2 mps 758 mmHg 48%

Tomorrow, 11 August, Tuesday

Time Temperature Precipitation Wind Pressure Humidity
00:00 +26°C° 0 mm 2 mps 758 mmHg 49%
01:00 +25°C° 0 mm 2 mps 758 mmHg 51%
02:00 +25°C° 0 mm 2 mps 759 mmHg 52%
03:00 +25°C° 0 mm 2 mps 759 mmHg 53%
04:00 +24°C° 0 mm 1 mps 759 mmHg 54%
05:00 +24°C° 0 mm 1 mps 759 mmHg 55%
06:00 +26°C° 0 mm 1 mps 759 mmHg 50%
07:00 +28°C° 0 mm 1 mps 759 mmHg 45%
08:00 +30°C° 0 mm 1 mps 759 mmHg 40%
09:00 +31°C° 0 mm 1 mps 759 mmHg 36%
10:00 +33°C° 0 mm 1 mps 759 mmHg 32%
11:00 +35°C° 0 mm 1 mps 759 mmHg 28%
12:00 +36°C° 0 mm 2 mps 759 mmHg 28%
13:00 +37°C° 0 mm 3 mps 758 mmHg 27%
14:00 +37°C° 0 mm 3 mps 758 mmHg 27%
15:00 +37°C° 0 mm 3 mps 758 mmHg 28%
16:00 +36°C° 0 mm 3 mps 758 mmHg 29%
17:00 +36°C° 0 mm 3 mps 757 mmHg 30%
18:00 +34°C° 0 mm 2 mps 757 mmHg 35%
19:00 +31°C° 0 mm 2 mps 757 mmHg 40%
20:00 +29°C° 0 mm 1 mps 757 mmHg 45%
21:00 +28°C° 0 mm 2 mps 758 mmHg 48%
22:00 +27°C° 0 mm 2 mps 758 mmHg 50%
23:00 +27°C° 0 mm 3 mps 758 mmHg 52%

Day after tomorrow, 12 August, Wednesday

Time Temperature Precipitation Wind Pressure Humidity
00:00 +26°C° 0 mm 2 mps 758 mmHg 55%
01:00 +26°C° 0 mm 2 mps 758 mmHg 59%
02:00 +25°C° 0 mm 1 mps 758 mmHg 62%
03:00 +25°C° 0 mm 1 mps 758 mmHg 61%
04:00 +25°C° 0 mm 1 mps 758 mmHg 60%
05:00 +25°C° 0 mm 1 mps 758 mmHg 59%
06:00 +26°C° 0 mm 1 mps 758 mmHg 53%
07:00 +28°C° 0 mm 1 mps 758 mmHg 48%
08:00 +28°C° 0 mm 0 mps 758 mmHg 43%
09:00 +32°C° 0 mm 1 mps 758 mmHg 39%
10:00 +33°C° 0 mm 1 mps 758 mmHg 36%
11:00 +36°C° 0 mm 2 mps 758 mmHg 33%
12:00 +36°C° 0 mm 2 mps 758 mmHg 33%
13:00 +36°C° 0 mm 3 mps 757 mmHg 33%
14:00 +36°C° 0 mm 3 mps 757 mmHg 34%
15:00 +35°C° 0 mm 2 mps 757 mmHg 35%
16:00 +35°C° 0 mm 2 mps 757 mmHg 37%
17:00 +33°C° 0 mm 1 mps 757 mmHg 39%
18:00 +32°C° 0.1 mm 1 mps 757 mmHg 43%
19:00 +30°C° 0.1 mm 1 mps 757 mmHg 48%
20:00 +29°C° 0.1 mm 1 mps 757 mmHg 52%
21:00 +28°C° 0 mm 2 mps 757 mmHg 56%
22:00 +27°C° 0 mm 2 mps 758 mmHg 59%
23:00 +27°C° 0 mm 2 mps 758 mmHg 62%

13 August, Thursday

Time Temperature Precipitation Wind Pressure Humidity
00:00 +26°C° 0 mm 2 mps 758 mmHg 63%
01:00 +26°C° 0 mm 2 mps 758 mmHg 64%
02:00 +25°C° 0 mm 2 mps 758 mmHg 65%
03:00 +25°C° 0 mm 2 mps 758 mmHg 66%
04:00 +25°C° 0 mm 2 mps 758 mmHg 66%
05:00 +25°C° 0 mm 1 mps 758 mmHg 67%
06:00 +26°C° 0.1 mm 1 mps 758 mmHg 62%
07:00 +28°C° 0.1 mm 1 mps 759 mmHg 57%
08:00 +29°C° 0.1 mm 1 mps 759 mmHg 52%
09:00 +31°C° 0 mm 1 mps 759 mmHg 48%
10:00 +32°C° 0 mm 2 mps 759 mmHg 43%
11:00 +35°C° 0 mm 2 mps 759 mmHg 38%
12:00 +35°C° 0 mm 2 mps 759 mmHg 39%
13:00 +34°C° 0 mm 2 mps 759 mmHg 40%
14:00 +34°C° 0 mm 2 mps 758 mmHg 41%
15:00 +34°C° 0 mm 2 mps 758 mmHg 41%
16:00 +34°C° 0 mm 2 mps 758 mmHg 41%
17:00 +34°C° 0 mm 2 mps 758 mmHg 41%
18:00 +32°C° 0.1 mm 2 mps 758 mmHg 45%
19:00 +30°C° 0.1 mm 1 mps 758 mmHg 49%
20:00 +29°C° 0.1 mm 1 mps 759 mmHg 53%
21:00 +28°C° 0 mm 1 mps 759 mmHg 55%
22:00 +27°C° 0 mm 2 mps 759 mmHg 58%
23:00 +26°C° 0 mm 3 mps 759 mmHg 61%

14 August, Friday

Time Temperature Precipitation Wind Pressure Humidity
00:00 +26°C° 0 mm 2 mps 759 mmHg 64%
01:00 +25°C° 0 mm 2 mps 759 mmHg 67%
02:00 +24°C° 0 mm 2 mps 759 mmHg 70%
03:00 +24°C° 0 mm 2 mps 759 mmHg 72%
04:00 +24°C° 0 mm 1 mps 759 mmHg 73%
05:00 +23°C° 0 mm 1 mps 759 mmHg 74%
06:00 +25°C° 0 mm 1 mps 759 mmHg 68%
07:00 +27°C° 0 mm 1 mps 759 mmHg 61%
08:00 +28°C° 0 mm 1 mps 759 mmHg 55%
09:00 +30°C° 0 mm 1 mps 759 mmHg 51%
10:00 +31°C° 0 mm 2 mps 759 mmHg 47%
11:00 +34°C° 0 mm 2 mps 759 mmHg 42%
12:00 +34°C° 0 mm 2 mps 759 mmHg 42%
13:00 +34°C° 0 mm 3 mps 758 mmHg 42%
14:00 +34°C° 0 mm 3 mps 758 mmHg 42%
15:00 +34°C° 0 mm 3 mps 758 mmHg 43%
16:00 +33°C° 0 mm 3 mps 757 mmHg 44%
17:00 +33°C° 0 mm 3 mps 757 mmHg 45%
18:00 +31°C° 0 mm 2 mps 757 mmHg 49%
19:00 +30°C° 0 mm 1 mps 757 mmHg 52%
20:00 +28°C° 0 mm 1 mps 757 mmHg 56%
21:00 +27°C° 0 mm 1 mps 758 mmHg 59%
22:00 +26°C° 0 mm 2 mps 758 mmHg 62%
23:00 +25°C° 0 mm 2 mps 758 mmHg 66%

15 August, Saturday

Time Temperature Precipitation Wind Pressure Humidity
00:00 +25°C° 0 mm 2 mps 758 mmHg 66%
01:00 +24°C° 0 mm 2 mps 758 mmHg 66%
02:00 +24°C° 0 mm 2 mps 758 mmHg 67%
03:00 +23°C° 0 mm 2 mps 758 mmHg 66%
04:00 +23°C° 0 mm 2 mps 758 mmHg 65%
05:00 +23°C° 0 mm 1 mps 758 mmHg 64%
06:00 +25°C° 0 mm 1 mps 758 mmHg 57%
07:00 +26°C° 0 mm 1 mps 758 mmHg 51%
08:00 +28°C° 0 mm 1 mps 758 mmHg 44%
09:00 +30°C° 0 mm 1 mps 758 mmHg 41%
10:00 +31°C° 0 mm 2 mps 758 mmHg 38%
11:00 +32°C° 0 mm 2 mps 757 mmHg 35%
12:00 +34°C° 0 mm 3 mps 757 mmHg 35%
13:00 +34°C° 0 mm 3 mps 757 mmHg 34%
14:00 +35°C° 0 mm 3 mps 756 mmHg 34%
15:00 +34°C° 0 mm 3 mps 756 mmHg 35%
16:00 +34°C° 0 mm 3 mps 755 mmHg 36%
17:00 +34°C° 0 mm 3 mps 755 mmHg 37%
18:00 +31°C° 0 mm 2 mps 755 mmHg 41%
19:00 +29°C° 0 mm 1 mps 755 mmHg 46%
20:00 +27°C° 0 mm 1 mps 755 mmHg 51%
21:00 +27°C° 0 mm 1 mps 756 mmHg 54%
22:00 +26°C° 0 mm 2 mps 756 mmHg 57%
23:00 +25°C° 0 mm 2 mps 756 mmHg 61%
Show more